This demonstration page uses our WeatherBlox Daily Observations layout. Learn more.

Left ArrowRight Arrow

Hourly Observations for October 13, 2022

Temp ( °F °C ) Dew Point ( °F °C ) Humidity (%) Winds ( mph kmh ) Pressure ( in mb ) Visibility ( mi km ) Precip ( " mm )
12:56 am 00:56 Clear 48 8.9 25 -3.9 40 40 W 13 20 30.06 1018 10 16 0.00 0.00
1:56 am 01:56 Clear 44 6.7 26 -3.3 49 49 W 13 20 30.06 1018 10 16 0.00 0.00
2:56 am 02:56 Clear 45 7.2 26 -3.3 47 47 W 15 24 30.06 1018 10 16 0.00 0.00
3:56 am 03:56 Clear 45 7.2 26 -3.3 47 47 W 14 22 30.06 1018 10 16 0.00 0.00
4:56 am 04:56 Clear 45 7.2 27 -2.8 49 49 W 13 20 30.05 1018 10 16 0.00 0.00
5:56 am 05:56 Clear 45 7.2 28 -2.2 51 51 W 14 22 30.06 1018 10 16 0.00 0.00
6:56 am 06:56 Clear 45 7.2 28 -2.2 51 51 WNW 14 22 30.06 1018 10 16 0.00 0.00
7:56 am 07:56 Sunny 45 7.2 28 -2.2 51 51 WNW 14 22 30.07 1018 10 16 0.00 0.00
8:56 am 08:56 Sunny 46 7.8 29 -1.7 51 51 WNW 15 24 30.08 1019 10 16 0.00 0.00
9:56 am 09:56 Sunny 53 11.7 28 -2.2 38 38 NW 22 35 30.06 1018 10 16 0.00 0.00
10:56 am 10:56 Sunny 55 12.8 26 -3.3 32 32 NW 29 46 30.05 1018 10 16 0.00 0.00
11:56 am 11:56 Sunny 57 13.9 23 -5 27 27 NW 26 43 30.05 1018 10 16 0.00 0.00
12:56 pm 12:56 Sunny 59 15 16 -8.9 18 18 NNW 28 44 30.02 1017 10 16 0.00 0.00
1:56 pm 13:56 Sunny 60 15.6 15 -9.4 17 17 NW 26 43 30.00 1016 10 16 0.00 0.00
2:56 pm 14:56 Sunny 61 16.1 13 -10.6 15 15 WNW 29 46 29.96 1015 10 16 0.00 0.00
3:56 pm 15:56 Sunny 63 17.2 14 -10 15 15 NW 24 39 29.94 1014 10 16 0.00 0.00
4:56 pm 16:56 Sunny 63 17.2 14 -10 15 15 WNW 24 39 29.93 1014 10 16 0.00 0.00
5:56 pm 17:56 Sunny 61 16.1 13 -10.6 15 15 NW 20 31 29.93 1013 10 16 0.00 0.00
6:56 pm 18:56 Sunny 56 13.3 16 -8.9 20 20 NW 9 15 29.93 1014 10 16 0.00 0.00
7:56 pm 19:56 Clear 50 10 17 -8.3 27 27 NW 5 7 29.94 1014 10 16 0.00 0.00
8:56 pm 20:56 Clear 47 8.3 19 -7.2 32 32 WNW 7 11 29.94 1014 10 16 0.00 0.00
9:56 pm 21:56 Clear 48 8.9 17 -8.3 29 29 W 7 11 29.93 1014 10 16 0.00 0.00
10:56 pm 22:56 Clear 46 7.8 19 -7.2 34 34 WNW 9 15 29.92 1013 10 16 0.00 0.00
11:56 pm 23:56 Clear 47 8.3 20 -6.7 34 34 W 8 13 29.91 1013 10 16 0.00 0.00

Powered by AerisWeather